Total_Precipitation_Accumulation
0.08 0.04 0.05 0.05 0.05 0.05 0.04 0.06 0.09 0.12 0.13 0.15 0.17 0.17 0.17 0.15 0.13 0.13 0.13 0.12 0.13 0.18 0.23 0.29 0.32 0.37 0.41 0.39 0.28 0.18 0.14 0.12 0.10 0.08 0.08 0.11 0.12 0.14 0.19 0.17 0.16 0.12 0.09
0.06 0.03 0.05 0.06 0.06 0.06 0.05 0.05 0.08 0.10 0.12 0.12 0.12 0.12 0.13 0.13 0.13 0.14 0.14 0.15 0.18 0.22 0.23 0.24 0.28 0.32 0.32 0.27 0.21 0.14 0.10 0.09 0.12 0.16 0.21 0.26 0.30 0.28 0.30 0.26 0.24 0.20 0.09
0.06 0.04 0.05 0.05 0.06 0.08 0.07 0.06 0.07 0.10 0.14 0.15 0.14 0.12 0.11 0.10 0.10 0.11 0.12 0.16 0.22 0.27 0.26 0.23 0.23 0.23 0.23 0.18 0.13 0.10 0.09 0.12 0.17 0.26 0.45 0.56 0.55 0.48 0.44 0.38 0.35 0.23 0.12
0.07 0.06 0.05 0.05 0.06 0.08 0.08 0.09 0.10 0.12 0.15 0.19 0.19 0.18 0.15 0.12 0.12 0.13 0.13 0.16 0.21 0.25 0.23 0.19 0.17 0.16 0.13 0.10 0.09 0.08 0.10 0.16 0.25 0.36 0.67 0.64 0.58 0.51 0.43 0.41 0.44 0.38 0.29
0.09 0.06 0.05 0.04 0.06 0.09 0.10 0.12 0.13 0.16 0.19 0.22 0.25 0.26 0.20 0.14 0.12 0.15 0.18 0.19 0.20 0.24 0.26 0.21 0.15 0.11 0.08 0.08 0.08 0.09 0.12 0.19 0.34 0.56 0.86 0.94 0.87 0.72 0.50 0.43 0.44 0.46 0.45
0.14 0.13 0.09 0.08 0.08 0.10 0.12 0.13 0.17 0.19 0.23 0.28 0.32 0.31 0.23 0.16 0.15 0.18 0.22 0.25 0.25 0.28 0.33 0.29 0.25 0.17 0.12 0.10 0.10 0.13 0.19 0.31 0.42 0.70 0.98 1.13 0.96 0.80 0.56 0.43 0.39 0.47 0.50
0.25 0.23 0.18 0.14 0.10 0.12 0.12 0.12 0.16 0.21 0.26 0.33 0.37 0.32 0.25 0.19 0.17 0.19 0.25 0.27 0.30 0.33 0.32 0.28 0.24 0.19 0.17 0.17 0.19 0.23 0.33 0.48 0.55 0.80 1.01 0.97 0.93 0.76 0.58 0.50 0.41 0.35 0.38
0.30 0.24 0.18 0.16 0.14 0.19 0.23 0.18 0.17 0.21 0.26 0.33 0.39 0.35 0.27 0.22 0.23 0.27 0.29 0.32 0.35 0.31 0.27 0.25 0.21 0.18 0.21 0.26 0.30 0.34 0.42 0.49 0.48 0.71 0.89 0.94 0.74 0.60 0.60 0.55 0.47 0.37 0.31
0.35 0.29 0.23 0.22 0.18 0.19 0.19 0.19 0.21 0.23 0.26 0.32 0.37 0.40 0.33 0.26 0.33 0.38 0.37 0.39 0.41 0.35 0.29 0.27 0.26 0.22 0.27 0.33 0.32 0.32 0.37 0.40 0.39 0.61 0.75 1.00 0.66 0.59 0.63 0.53 0.42 0.37 0.34
0.78 0.80 0.55 0.41 0.29 0.21 0.18 0.20 0.22 0.24 0.27 0.30 0.31 0.32 0.32 0.32 0.34 0.38 0.35 0.36 0.36 0.29 0.25 0.25 0.26 0.25 0.22 0.20 0.19 0.20 0.24 0.23 0.28 0.45 0.75 0.82 0.69 0.72 0.76 0.60 0.46 0.39 0.38
1.28 1.40 1.05 0.65 0.46 0.40 0.34 0.28 0.28 0.25 0.29 0.27 0.25 0.28 0.33 0.43 0.52 0.53 0.38 0.37 0.33 0.29 0.26 0.26 0.24 0.21 0.17 0.15 0.18 0.21 0.20 0.18 0.35 0.51 0.68 0.76 0.78 0.88 0.90 0.75 0.58 0.50 0.44
1.58 1.51 1.31 0.89 0.89 0.89 0.71 0.60 0.47 0.36 0.35 0.31 0.39 0.37 0.47 0.75 0.85 0.67 0.64 0.50 0.44 0.42 0.37 0.35 0.32 0.27 0.21 0.21 0.24 0.23 0.20 0.23 0.45 0.59 0.70 0.88 0.95 1.02 1.00 0.81 0.66 0.59 0.53
1.73 1.40 1.15 1.03 0.94 1.04 0.99 0.93 0.81 0.72 0.73 0.68 0.72 0.70 0.82 0.89 0.77 0.69 0.80 0.72 0.67 0.59 0.56 0.58 0.46 0.37 0.36 0.39 0.38 0.31 0.30 0.36 0.46 0.55 0.68 0.87 1.02 1.15 1.17 0.98 0.79 0.68 0.65
1.56 1.44 1.35 1.34 1.20 1.17 1.35 1.34 1.26 1.21 1.10 0.96 0.95 0.92 1.09 1.22 1.16 1.18 1.20 1.15 1.23 1.17 1.04 0.90 0.73 0.62 0.54 0.46 0.43 0.47 0.53 0.52 0.61 0.68 0.87 0.94 1.02 1.11 1.16 1.08 1.00 0.91 0.83
1.75 1.61 1.51 1.54 1.45 1.34 1.54 1.68 1.54 1.46 1.31 1.17 1.13 1.16 1.23 1.29 1.34 1.47 1.47 1.58 1.57 1.47 1.26 1.09 0.89 0.87 0.80 0.69 0.63 0.59 0.68 0.75 0.81 0.92 0.91 0.93 0.97 1.03 1.18 1.27 1.24 1.18 1.07
2.13 1.89 1.62 1.57 1.48 1.42 1.50 1.61 1.60 1.49 1.48 1.50 1.46 1.40 1.36 1.44 1.63 1.69 1.70 1.66 1.57 1.45 1.42 1.39 1.25 1.22 1.14 1.07 0.94 0.90 0.90 0.92 0.98 1.06 1.12 1.18 1.02 0.94 1.09 1.31 1.39 1.38 1.36
2.31 2.23 1.94 1.78 1.70 1.66 1.60 1.58 1.52 1.54 1.69 1.66 1.75 1.78 1.59 1.50 1.59 1.71 1.88 1.82 1.70 1.66 1.63 1.55 1.53 1.52 1.41 1.32 1.26 1.19 1.12 1.11 1.07 1.08 1.25 1.37 1.29 1.17 1.16 1.26 1.35 1.39 1.46
2.74 2.61 2.06 1.73 1.83 1.91 1.97 1.92 1.94 1.91 1.98 1.94 1.81 1.88 1.85 1.86 1.80 1.80 1.85 1.78 1.70 1.69 1.84 1.87 1.83 1.79 1.69 1.62 1.57 1.41 1.36 1.32 1.23 1.20 1.27 1.34 1.51 1.46 1.36 1.27 1.27 1.32 1.39
3.25 2.99 2.33 2.02 2.11 2.18 2.25 2.41 2.58 2.64 2.53 2.46 2.35 2.25 2.15 2.21 2.18 2.15 2.21 2.13 2.04 2.10 2.10 1.94 1.99 2.02 2.04 1.93 1.69 1.55 1.45 1.44 1.41 1.32 1.32 1.31 1.43 1.56 1.50 1.39 1.32 1.29 1.38
3.36 3.19 2.72 2.44 2.54 2.51 2.49 2.68 2.83 2.90 2.90 2.97 3.00 2.87 2.68 2.61 2.63 2.73 2.79 2.72 2.53 2.49 2.49 2.50 2.43 2.18 2.02 1.93 1.76 1.71 1.60 1.46 1.39 1.32 1.27 1.27 1.29 1.27 1.36 1.36 1.39 1.37 1.36
2.66 2.67 2.74 2.71 2.74 2.80 2.80 2.88 3.07 3.24 3.30 3.30 3.40 3.43 3.28 3.20 3.23 3.35 3.33 3.24 2.99 2.80 2.70 2.64 2.54 2.34 2.09 1.92 1.90 1.84 1.68 1.48 1.40 1.33 1.26 1.23 1.16 1.11 1.18 1.26 1.20 1.14 1.18
2.40 2.58 2.69 2.63 2.82 3.06 3.39 3.80 4.13 4.32 4.23 4.13 4.08 4.00 3.87 3.77 3.68 3.61 3.58 3.39 3.15 2.96 2.75 2.57 2.48 2.38 2.21 2.05 1.97 2.01 1.79 1.59 1.33 1.19 1.19 1.13 1.05 1.01 1.00 0.97 1.03 1.06 1.04
2.05 2.35 2.55 2.74 3.14 3.59 4.09 4.77 5.23 5.13 4.80 4.65 4.40 4.30 4.09 3.82 3.74 3.75 3.50 3.30 3.10 2.90 2.73 2.53 2.45 2.40 2.22 2.08 1.98 2.01 1.86 1.66 1.44 1.27 1.09 1.00 0.98 0.97 0.96 0.93 0.95 1.04 1.05
1.83 2.22 2.56 2.93 3.43 4.03 4.51 4.97 5.28 5.32 5.12 4.90 4.47 4.11 3.72 3.40 3.22 3.13 3.03 2.85 2.73 2.58 2.44 2.29 2.26 2.20 2.07 1.91 1.81 1.63 1.52 1.42 1.39 1.27 1.09 0.97 0.96 0.99 1.00 0.96 0.97 1.02 1.07
1.68 2.12 2.49 2.85 3.40 3.95 4.46 4.83 5.04 5.17 5.07 4.76 4.16 3.58 3.21 2.92 2.71 2.50 2.32 2.22 2.19 2.10 1.90 1.74 1.69 1.67 1.60 1.53 1.50 1.40 1.31 1.22 1.18 1.15 1.10 1.01 0.95 0.91 0.90 0.91 0.91 0.93 0.97
1.44 1.82 2.20 2.54 3.19 3.83 4.35 4.73 4.97 5.01 4.75 4.22 3.63 3.12 2.82 2.59 2.37 2.17 2.03 1.85 1.74 1.61 1.44 1.26 1.20 1.23 1.28 1.29 1.26 1.21 1.09 1.03 0.99 1.00 0.99 0.93 0.91 0.90 0.87 0.88 0.88 0.87 0.91